Flag for Canada Weather past 2 weeks in Edmonton, Alberta, Canada

Now
63 °F

Sunny.


Feels Like: 63 °F
Forecast: 47 / 66 °F
Wind: 13 mph from Northwest

Location: Edmonton Municipal

Current Time: Sep 20, 2014 at 12:34:46 PM

Latest Report: Sep 20, 2014 at 12:00 PM


Visibility: 9 mi

Pressure: 30.15 "Hg

Humidity: 39%

Dew point: 37 °F

Location of EdmontonLocation

Historic Weather in Edmonton — Graph

°F

Edmonton temperature yesterday

Maximum temperature yesterday: 72 °F (at 3:00 PM)
Minimum temperature yesterday: 52 °F (at 5:00 AM)
Average temperature yesterday: 61 °F

Past Weeks' High & Low Weather Summary

 TemperatureHumidityPressure
High79 °F (Sep 16, 3:00 PM)100% (Sep 7, 6:50 PM)30.66 "Hg (Sep 7, 6:50 PM)
Low28 °F (Sep 11, 4:00 AM)29% (Sep 11, 5:00 PM)29.55 "Hg (Sep 18, 5:00 AM)
Average51 °F69%30.06 "Hg
* Reported Sep 5 7:00 AM — Sep 20 7:00 AM, Edmonton, Weather by CustomWeather, © 2014

Note: Actual official high and low records may vary slightly from our data, if they occured in-between our weather recording intervals... More about our weather records

Advertising

Edmonton weather history for previous 24 hours

 ConditionsComfort  
Time TempWeatherWind HumidityBarometerVisibility
7:00 AM
Sep 20
50 °FClear.8 mph58%30.07 "Hg9 mi
6:00 AM52 °FClear.15 mph54%30.03 "Hg9 mi
5:00 AM52 °FClear.14 mph54%30.01 "Hg9 mi
4:00 AM54 °FClear.14 mph51%29.99 "Hg9 mi
3:00 AM54 °FClear.14 mph51%29.96 "Hg9 mi
2:00 AM54 °FClear.9 mph47%29.95 "Hg9 mi
1:00 AM55 °FClear.12 mph44%29.92 "Hg9 mi
12:00 AM57 °FClear.9 mph41%29.89 "Hg9 mi
11:00 PM
Sep 19
59 °FClear.14 mph36%29.87 "Hg9 mi
10:00 PM63 °FPassing clouds.18 mph34%29.83 "Hg9 mi
9:00 PM64 °FPassing clouds.16 mph34%29.80 "Hg9 mi
8:00 PM64 °FScattered clouds.10 mph37%29.77 "Hg9 mi
7:00 PM66 °FPassing clouds.9 mph40%29.74 "Hg9 mi
6:00 PM68 °FPassing clouds.15 mph35%29.72 "Hg9 mi
5:00 PM70 °FPassing clouds.16 mph38%29.71 "Hg9 mi
4:00 PM72 °FSunny.20 mph33%29.70 "Hg9 mi
3:00 PM72 °FPassing clouds.14 mph38%29.70 "Hg9 mi
2:00 PM70 °FPartly sunny.12 mph46%29.71 "Hg9 mi
1:00 PM66 °FBroken clouds.12 mph56%29.72 "Hg9 mi
12:00 PM64 °FPassing clouds.8 mph64%29.72 "Hg9 mi
Weather by CustomWeather, © 2014

See weather overviewHow to use our weather pages